N87JW KSTS-CYZT

Flight info

Callsign N87JW
Flight time N/A
Altitude 24000
Route MMORK1 ENI J143 RBG DCT ONP DCT CONDI DCT YZT
Aircraft PC12/L-SDFGRWY/S

Departure

Time 2026-04-30 13:51
Airport Charles M. Schulz Sonoma County Airport (KSTS)

Arrival

Time N/A
Airport Port Hardy Airport (CYZT)
Time Latitude Longitude Altitude Speed Heading
2026-04-30 13:27 38.51286 -122.80672 129 ft 0 kts 354°
2026-04-30 13:39 38.51294 -122.80672 130 ft 5 kts 354°
2026-04-30 13:39 38.51315 -122.80823 130 ft 5 kts 269°
2026-04-30 13:40 38.51315 -122.80826 130 ft 1 kts 269°
2026-04-30 13:40 38.51315 -122.80877 130 ft 9 kts 269°
2026-04-30 13:40 38.51303 -122.80969 128 ft 11 kts 212°
2026-04-30 13:40 38.51201 -122.80930 128 ft 20 kts 156°
2026-04-30 13:41 38.51095 -122.80873 130 ft 16 kts 156°
2026-04-30 13:41 38.50967 -122.80802 133 ft 19 kts 157°
2026-04-30 13:41 38.50872 -122.80754 131 ft 14 kts 160°
2026-04-30 13:41 38.50757 -122.80691 131 ft 21 kts 155°
2026-04-30 13:42 38.50626 -122.80621 132 ft 22 kts 157°
2026-04-30 13:42 38.50483 -122.80545 133 ft 20 kts 157°
2026-04-30 13:42 38.50284 -122.80452 135 ft 8 kts 213°
2026-04-30 13:43 38.50273 -122.80476 135 ft 0 kts 250°
2026-04-30 13:48 38.50273 -122.80478 135 ft 2 kts 250°
2026-04-30 13:49 38.50258 -122.80538 134 ft 12 kts 256°
2026-04-30 13:49 38.50287 -122.80601 133 ft 4 kts 338°
2026-04-30 13:49 38.50288 -122.80602 133 ft 0 kts 339°
2026-04-30 13:50 38.50298 -122.80607 133 ft 12 kts 339°
2026-04-30 13:50 38.51127 -122.81054 155 ft 105 kts 335°
2026-04-30 13:50 38.51855 -122.81487 373 ft 124 kts 334°
2026-04-30 13:51 38.52690 -122.82000 795 ft 135 kts 332°
2026-04-30 13:51 38.53204 -122.82965 1261 ft 144 kts 271°
2026-04-30 13:51 38.53152 -122.84175 1985 ft 132 kts 271°
2026-04-30 13:51 38.53161 -122.85365 2511 ft 136 kts 272°
2026-04-30 13:52 38.53172 -122.86605 2938 ft 147 kts 272°
2026-04-30 13:52 38.53184 -122.87919 3481 ft 148 kts 271°
2026-04-30 13:52 38.53192 -122.89240 4026 ft 150 kts 271°
2026-04-30 13:52 38.53199 -122.90583 4565 ft 153 kts 270°
2026-04-30 13:53 38.53207 -122.91952 5135 ft 155 kts 270°
2026-04-30 13:53 38.53215 -122.93335 5731 ft 156 kts 270°
2026-04-30 13:53 38.53223 -122.94731 6341 ft 158 kts 270°
2026-04-30 13:53 38.53232 -122.96134 6626 ft 160 kts 270°
2026-04-30 13:54 38.53239 -122.97595 7136 ft 164 kts 270°
2026-04-30 13:54 38.53245 -122.99020 7761 ft 161 kts 270°
2026-04-30 13:54 38.53252 -123.00452 8351 ft 162 kts 271°
2026-04-30 13:54 38.53260 -123.01892 8966 ft 162 kts 271°
2026-04-30 13:55 38.53267 -123.03330 9586 ft 162 kts 271°
2026-04-30 13:55 38.53273 -123.04776 10173 ft 163 kts 272°
2026-04-30 13:55 38.53280 -123.06231 10723 ft 164 kts 272°
2026-04-30 13:55 38.53287 -123.07695 11274 ft 166 kts 273°
2026-04-30 13:56 38.53295 -123.09174 11831 ft 167 kts 274°
2026-04-30 13:56 38.53394 -123.10648 12371 ft 165 kts 290°
2026-04-30 13:56 38.53909 -123.11932 12948 ft 162 kts 311°
2026-04-30 13:56 38.54747 -123.12871 13523 ft 159 kts 332°
2026-04-30 13:57 38.55727 -123.13527 14064 ft 159 kts 333°
2026-04-30 13:57 38.56708 -123.14199 14555 ft 160 kts 333°
2026-04-30 13:57 38.57696 -123.14871 15052 ft 161 kts 333°
2026-04-30 13:57 38.58688 -123.15542 15565 ft 162 kts 333°
2026-04-30 13:58 38.59685 -123.16217 16072 ft 162 kts 333°
2026-04-30 13:58 38.61684 -123.17573 17094 ft 164 kts 333°
2026-04-30 13:58 38.62679 -123.18244 17609 ft 164 kts 332°
2026-04-30 13:59 38.63692 -123.18931 18127 ft 165 kts 332°
2026-04-30 13:59 38.64714 -123.19624 18589 ft 167 kts 332°
2026-04-30 13:59 38.65741 -123.20321 19037 ft 168 kts 332°
2026-04-30 13:59 38.66775 -123.21022 19481 ft 168 kts 332°
2026-04-30 14:00 38.67813 -123.21727 19939 ft 169 kts 332°
2026-04-30 14:00 38.69906 -123.23148 20844 ft 171 kts 332°
2026-04-30 14:00 38.70962 -123.23865 21293 ft 172 kts 332°
2026-04-30 14:01 38.72096 -123.24375 21741 ft 175 kts 347°
2026-04-30 14:01 38.73302 -123.24518 22186 ft 177 kts 353°
2026-04-30 14:01 38.74535 -123.24629 22645 ft 178 kts 353°
2026-04-30 14:01 38.75776 -123.24746 23104 ft 179 kts 353°
2026-04-30 14:02 38.77030 -123.24862 23501 ft 184 kts 353°
2026-04-30 14:02 38.78337 -123.24980 23752 ft 192 kts 353°
2026-04-30 14:02 38.79669 -123.25097 23982 ft 191 kts 353°
2026-04-30 14:02 38.81035 -123.25224 24054 ft 205 kts 353°
2026-04-30 14:03 38.82518 -123.25360 24068 ft 223 kts 353°
2026-04-30 14:03 38.84121 -123.25504 24068 ft 237 kts 353°
2026-04-30 14:03 38.85806 -123.25655 24068 ft 247 kts 353°
2026-04-30 14:03 38.87554 -123.25813 24065 ft 255 kts 353°
2026-04-30 14:04 38.89338 -123.25974 24069 ft 259 kts 353°
2026-04-30 14:04 38.91152 -123.26139 24072 ft 263 kts 353°
2026-04-30 14:04 38.92981 -123.26306 24075 ft 264 kts 353°
2026-04-30 14:04 38.94819 -123.26473 24078 ft 266 kts 353°
2026-04-30 14:05 38.96666 -123.26641 24079 ft 267 kts 353°
2026-04-30 14:05 38.98522 -123.26811 24081 ft 268 kts 353°
2026-04-30 14:05 39.00382 -123.26980 24083 ft 267 kts 353°
2026-04-30 14:05 39.02236 -123.27149 24085 ft 267 kts 353°
2026-04-30 14:06 39.04092 -123.27319 24086 ft 267 kts 353°
2026-04-30 14:06 39.07811 -123.27478 24087 ft 267 kts 356°
2026-04-30 14:07 39.11531 -123.27540 24087 ft 267 kts 356°
2026-04-30 14:07 39.13394 -123.27575 24086 ft 267 kts 356°
2026-04-30 14:07 39.15256 -123.27608 24086 ft 268 kts 356°
2026-04-30 14:08 39.18991 -123.27675 24083 ft 269 kts 356°
2026-04-30 14:08 39.20861 -123.27708 24084 ft 268 kts 356°
2026-04-30 14:08 39.24591 -123.27774 24081 ft 268 kts 356°
2026-04-30 14:09 39.26456 -123.27807 24080 ft 268 kts 356°
2026-04-30 14:09 39.28323 -123.27841 24079 ft 268 kts 356°
2026-04-30 14:09 39.32026 -123.27907 24077 ft 268 kts 356°
2026-04-30 14:10 39.33890 -123.27940 24076 ft 268 kts 356°
2026-04-30 14:10 39.35759 -123.27974 24076 ft 268 kts 356°
2026-04-30 14:10 39.37630 -123.28007 24068 ft 269 kts 356°
2026-04-30 14:10 39.39497 -123.28040 24069 ft 268 kts 356°
2026-04-30 14:11 39.41364 -123.28074 24070 ft 269 kts 356°
2026-04-30 14:11 39.43231 -123.28108 24069 ft 269 kts 356°
2026-04-30 14:11 39.45102 -123.28141 24069 ft 269 kts 356°
2026-04-30 14:11 39.46973 -123.28175 24068 ft 269 kts 356°
2026-04-30 14:12 39.48841 -123.28208 24068 ft 269 kts 356°
2026-04-30 14:12 39.50711 -123.28242 24068 ft 268 kts 356°
2026-04-30 14:12 39.52553 -123.28275 24068 ft 269 kts 356°
2026-04-30 14:12 39.53818 -123.28297 24070 ft 269 kts 356°
2026-04-30 14:13 39.56295 -123.28342 24067 ft 269 kts 356°
2026-04-30 14:13 39.58169 -123.28376 24069 ft 269 kts 356°
2026-04-30 14:13 39.60039 -123.28410 24070 ft 269 kts 356°
2026-04-30 14:13 39.61909 -123.28443 24070 ft 269 kts 356°
2026-04-30 14:14 39.63777 -123.28477 24072 ft 269 kts 356°
2026-04-30 14:14 39.65649 -123.28511 24072 ft 269 kts 356°
2026-04-30 14:14 39.67521 -123.28545 24076 ft 269 kts 356°
2026-04-30 14:14 39.69389 -123.28578 24077 ft 269 kts 356°
2026-04-30 14:15 39.71260 -123.28612 24077 ft 269 kts 356°
2026-04-30 14:15 39.73127 -123.28646 24076 ft 268 kts 356°
2026-04-30 14:15 39.74996 -123.28679 24080 ft 268 kts 356°
2026-04-30 14:15 39.76868 -123.28714 24080 ft 269 kts 356°
2026-04-30 14:16 39.78738 -123.28748 24080 ft 269 kts 356°
2026-04-30 14:16 39.80609 -123.28781 24079 ft 269 kts 356°
2026-04-30 14:16 39.82482 -123.28814 24079 ft 269 kts 356°
2026-04-30 14:16 39.84348 -123.28849 24079 ft 268 kts 356°
2026-04-30 14:17 39.86218 -123.28883 24079 ft 269 kts 356°
2026-04-30 14:17 39.88091 -123.28917 24079 ft 269 kts 356°
2026-04-30 14:17 39.89958 -123.28951 24086 ft 269 kts 356°
2026-04-30 14:17 39.91829 -123.28985 24087 ft 269 kts 356°
2026-04-30 14:18 39.93697 -123.29019 24087 ft 269 kts 356°
2026-04-30 14:18 39.95547 -123.29052 24087 ft 269 kts 356°
2026-04-30 14:18 39.99288 -123.29120 24091 ft 269 kts 356°
2026-04-30 14:19 40.03034 -123.29189 24089 ft 268 kts 356°
2026-04-30 14:19 40.04902 -123.29223 24094 ft 269 kts 356°
2026-04-30 14:19 40.06773 -123.29257 24095 ft 269 kts 356°
2026-04-30 14:20 40.08643 -123.29291 24089 ft 268 kts 356°
2026-04-30 14:20 40.10516 -123.29326 24089 ft 269 kts 356°
2026-04-30 14:20 40.14254 -123.29394 24097 ft 269 kts 356°
2026-04-30 14:21 40.16125 -123.29428 24091 ft 269 kts 356°
2026-04-30 14:21 40.17996 -123.29462 24090 ft 269 kts 356°
2026-04-30 14:21 40.21733 -123.29531 24097 ft 269 kts 356°
2026-04-30 14:22 40.23601 -123.29565 24101 ft 269 kts 356°
2026-04-30 14:22 40.27345 -123.29634 24105 ft 269 kts 356°
2026-04-30 14:22 40.29214 -123.29668 24105 ft 269 kts 356°
2026-04-30 14:23 40.32963 -123.29737 24108 ft 269 kts 356°
2026-04-30 14:23 40.36710 -123.29806 24113 ft 269 kts 356°
2026-04-30 14:24 40.40437 -123.29875 24113 ft 269 kts 356°
2026-04-30 14:24 40.42310 -123.29910 24121 ft 269 kts 356°
2026-04-30 14:25 40.46051 -123.29978 24116 ft 269 kts 356°
2026-04-30 14:25 40.49799 -123.30048 24115 ft 270 kts 356°
2026-04-30 14:26 40.53553 -123.30117 24123 ft 270 kts 356°
2026-04-30 14:26 40.55433 -123.30152 24123 ft 270 kts 356°
2026-04-30 14:26 40.59194 -123.30222 24128 ft 270 kts 356°
2026-04-30 14:27 40.60438 -123.30244 24128 ft 270 kts 356°
2026-04-30 14:27 40.62314 -123.30279 24127 ft 269 kts 355°
2026-04-30 14:27 40.64795 -123.30326 24129 ft 269 kts 356°
2026-04-30 14:28 40.68545 -123.30395 24127 ft 269 kts 356°
2026-04-30 14:28 40.70424 -123.30431 24127 ft 270 kts 356°
2026-04-30 14:28 40.71672 -123.30453 24128 ft 270 kts 356°
2026-04-30 14:28 40.73576 -123.30489 24129 ft 270 kts 356°
2026-04-30 14:29 40.77314 -123.30558 24128 ft 271 kts 356°
2026-04-30 14:29 40.81087 -123.30631 24136 ft 271 kts 356°
2026-04-30 14:30 40.86730 -123.30735 24127 ft 270 kts 355°
2026-04-30 14:31 40.90505 -123.30806 24141 ft 272 kts 355°
2026-04-30 14:31 40.94316 -123.30879 24140 ft 271 kts 356°
2026-04-30 14:31 40.96173 -123.30913 24139 ft 270 kts 356°
2026-04-30 14:32 40.99922 -123.30984 24134 ft 269 kts 356°
2026-04-30 14:32 41.01786 -123.31018 24134 ft 267 kts 356°
2026-04-30 14:32 41.03647 -123.31053 24132 ft 267 kts 355°
2026-04-30 14:33 41.05508 -123.31089 24144 ft 268 kts 355°
2026-04-30 14:33 41.09264 -123.31160 24143 ft 271 kts 355°
2026-04-30 14:33 41.11150 -123.31195 24146 ft 272 kts 355°
2026-04-30 14:34 41.13044 -123.31230 24148 ft 272 kts 355°
2026-04-30 14:34 41.14938 -123.31266 24150 ft 272 kts 355°
2026-04-30 14:34 41.16831 -123.31302 24146 ft 272 kts 355°
2026-04-30 14:34 41.18732 -123.31337 24152 ft 273 kts 355°
2026-04-30 14:35 41.22525 -123.31410 24143 ft 273 kts 355°
2026-04-30 14:35 41.24425 -123.31446 24144 ft 273 kts 355°
2026-04-30 14:35 41.26324 -123.31481 24142 ft 273 kts 355°
2026-04-30 14:36 41.28223 -123.31517 24137 ft 273 kts 356°
2026-04-30 14:36 41.30117 -123.31553 24140 ft 272 kts 355°
2026-04-30 14:36 41.31961 -123.31588 24133 ft 272 kts 356°
2026-04-30 14:36 41.33857 -123.31624 24138 ft 272 kts 355°
2026-04-30 14:37 41.35755 -123.31660 24138 ft 273 kts 355°
2026-04-30 14:37 41.37651 -123.31695 24140 ft 273 kts 355°
2026-04-30 14:37 41.39528 -123.31732 24140 ft 273 kts 355°
2026-04-30 14:37 41.41428 -123.31768 24139 ft 273 kts 355°
2026-04-30 14:38 41.43332 -123.31804 24141 ft 273 kts 355°
2026-04-30 14:38 41.45229 -123.31840 24141 ft 273 kts 355°
2026-04-30 14:38 41.47135 -123.31876 24141 ft 272 kts 355°
2026-04-30 14:38 41.49030 -123.31912 24136 ft 272 kts 355°
2026-04-30 14:39 41.50929 -123.31948 24141 ft 273 kts 355°
2026-04-30 14:39 41.52833 -123.31985 24146 ft 273 kts 355°
2026-04-30 14:39 41.54709 -123.32021 24148 ft 273 kts 355°
2026-04-30 14:40 41.58511 -123.32094 24146 ft 273 kts 356°
2026-04-30 14:40 41.60406 -123.32129 24150 ft 272 kts 355°
2026-04-30 14:40 41.62299 -123.32165 24150 ft 272 kts 355°
2026-04-30 14:40 41.64192 -123.32202 24152 ft 273 kts 355°
2026-04-30 14:41 41.66094 -123.32239 24147 ft 273 kts 355°
2026-04-30 14:41 41.67988 -123.32274 24146 ft 273 kts 355°
2026-04-30 14:41 41.69888 -123.32311 24147 ft 273 kts 356°
2026-04-30 14:41 41.71785 -123.32348 24148 ft 273 kts 355°
2026-04-30 14:42 41.73688 -123.32384 24151 ft 273 kts 355°
2026-04-30 14:42 41.75589 -123.32421 24149 ft 273 kts 355°
2026-04-30 14:42 41.77489 -123.32457 24152 ft 273 kts 355°
2026-04-30 14:42 41.79387 -123.32493 24151 ft 273 kts 355°
2026-04-30 14:43 41.81286 -123.32530 24145 ft 272 kts 356°
2026-04-30 14:43 41.83179 -123.32566 24151 ft 272 kts 355°
2026-04-30 14:43 41.85076 -123.32604 24147 ft 273 kts 355°
2026-04-30 14:43 41.86951 -123.32640 24152 ft 273 kts 355°
2026-04-30 14:44 41.88850 -123.32676 24155 ft 272 kts 356°
2026-04-30 14:44 41.90747 -123.32712 24154 ft 273 kts 356°
2026-04-30 14:44 41.92648 -123.32749 24150 ft 273 kts 356°
2026-04-30 14:44 41.94546 -123.32786 24150 ft 273 kts 356°
2026-04-30 14:45 41.96441 -123.32823 24151 ft 273 kts 356°
2026-04-30 14:45 41.98339 -123.32859 24148 ft 272 kts 356°
2026-04-30 14:45 42.00235 -123.32896 24150 ft 273 kts 356°
2026-04-30 14:45 42.02133 -123.32933 24147 ft 272 kts 355°
2026-04-30 14:46 42.04029 -123.32969 24146 ft 271 kts 355°
2026-04-30 14:46 42.05918 -123.33006 24143 ft 272 kts 355°
2026-04-30 14:46 42.07811 -123.33043 24144 ft 272 kts 355°
2026-04-30 14:46 42.09705 -123.33080 24144 ft 273 kts 355°
2026-04-30 14:47 42.11607 -123.33117 24143 ft 273 kts 355°
2026-04-30 14:47 42.13510 -123.33154 24141 ft 274 kts 355°
2026-04-30 14:47 42.15413 -123.33191 24143 ft 274 kts 355°
2026-04-30 14:47 42.17316 -123.33228 24149 ft 274 kts 355°
2026-04-30 14:48 42.19192 -123.33264 24140 ft 272 kts 356°
2026-04-30 14:48 42.21079 -123.33301 24136 ft 270 kts 355°
2026-04-30 14:48 42.22954 -123.33337 24132 ft 269 kts 356°
2026-04-30 14:48 42.24819 -123.33374 24124 ft 268 kts 355°
2026-04-30 14:49 42.26693 -123.33411 24121 ft 270 kts 355°
2026-04-30 14:49 42.28580 -123.33448 24121 ft 272 kts 355°
2026-04-30 14:49 42.30478 -123.33485 24126 ft 273 kts 355°
2026-04-30 14:49 42.32384 -123.33522 24129 ft 275 kts 355°
2026-04-30 14:50 42.36217 -123.33597 24125 ft 276 kts 355°
2026-04-30 14:50 42.38142 -123.33634 24126 ft 276 kts 355°
2026-04-30 14:51 42.41969 -123.33709 24111 ft 274 kts 355°
2026-04-30 14:51 42.43868 -123.33746 24108 ft 273 kts 355°
2026-04-30 14:51 42.47656 -123.33821 24106 ft 272 kts 355°
2026-04-30 14:52 42.49546 -123.33858 24109 ft 272 kts 355°
2026-04-30 14:52 42.53296 -123.33932 24107 ft 271 kts 355°
2026-04-30 14:52 42.55179 -123.33969 24107 ft 271 kts 355°
2026-04-30 14:53 42.58953 -123.34044 24099 ft 271 kts 355°
2026-04-30 14:53 42.60836 -123.34081 24100 ft 271 kts 355°
2026-04-30 14:54 42.64610 -123.34155 24095 ft 271 kts 355°
2026-04-30 14:54 42.68380 -123.34230 24095 ft 272 kts 355°
2026-04-30 14:55 42.72166 -123.34305 24099 ft 272 kts 355°
2026-04-30 14:55 42.74057 -123.34343 24099 ft 272 kts 355°
2026-04-30 14:55 42.77847 -123.34418 24109 ft 273 kts 355°
2026-04-30 14:56 42.81611 -123.34492 24107 ft 272 kts 355°
2026-04-30 14:56 42.85395 -123.34568 24120 ft 272 kts 355°
2026-04-30 14:57 42.87294 -123.34606 24117 ft 272 kts 355°
2026-04-30 14:57 42.91105 -123.34682 24137 ft 275 kts 355°
2026-04-30 14:58 42.94944 -123.34758 24151 ft 277 kts 355°
2026-04-30 14:58 42.96874 -123.34796 24156 ft 278 kts 355°
2026-04-30 14:58 43.00735 -123.34873 24173 ft 278 kts 355°
2026-04-30 14:59 43.04604 -123.34915 24180 ft 279 kts
2026-04-30 15:00 43.10080 -123.31781 24196 ft 289 kts 24°
2026-04-30 15:00 43.13614 -123.29155 24201 ft 287 kts 24°
2026-04-30 15:01 43.17078 -123.26565 24203 ft 285 kts 24°
2026-04-30 15:01 43.18250 -123.25687 24202 ft 284 kts 24°
2026-04-30 15:01 43.22298 -123.22736 24194 ft 280 kts 17°
2026-04-30 15:02 43.24175 -123.22256 24192 ft 273 kts 359°
2026-04-30 15:02 43.26070 -123.22278 24195 ft 273 kts 352°
2026-04-30 15:03 43.31748 -123.23152 24199 ft 274 kts 349°
2026-04-30 15:03 43.35547 -123.23803 24195 ft 276 kts 349°
2026-04-30 15:04 43.39377 -123.24455 24193 ft 277 kts 349°
2026-04-30 15:04 43.45039 -123.25439 24183 ft 271 kts 349°
2026-04-30 15:05 43.50617 -123.26411 24175 ft 270 kts 349°
2026-04-30 15:06 43.54341 -123.27057 24176 ft 270 kts 349°
2026-04-30 15:06 43.58099 -123.27702 24176 ft 274 kts 349°
2026-04-30 15:07 43.61901 -123.28353 24177 ft 275 kts 350°
2026-04-30 15:07 43.65663 -123.28297 24177 ft 278 kts 358°
2026-04-30 15:08 43.69296 -123.28316 24174 ft 276 kts 355°
2026-04-30 15:08 43.75059 -123.28383 24174 ft 275 kts 356°
2026-04-30 15:09 43.78847 -123.28426 24175 ft 273 kts 356°
2026-04-30 15:09 43.82634 -123.28465 24182 ft 271 kts 356°
2026-04-30 15:10 43.86405 -123.28505 24181 ft 270 kts 356°
2026-04-30 15:11 43.93906 -123.28584 24179 ft 269 kts 356°
2026-04-30 15:11 43.97671 -123.28624 24183 ft 271 kts 355°
2026-04-30 15:12 44.03355 -123.28683 24187 ft 273 kts 355°
2026-04-30 15:13 44.07136 -123.28723 24193 ft 274 kts 355°
2026-04-30 15:14 44.14738 -123.28803 24193 ft 272 kts 356°
2026-04-30 15:14 44.20395 -123.28863 24191 ft 270 kts 355°
2026-04-30 15:16 44.29787 -123.28963 24183 ft 269 kts 355°
2026-04-30 15:17 44.36618 -123.29036 24189 ft 267 kts 355°
2026-04-30 15:18 44.45899 -123.29135 24198 ft 266 kts 356°
2026-04-30 15:19 44.51405 -123.29194 24195 ft 264 kts 356°